Погода в Бирске

Погода в Бирске : погода сейчас, прогноз погоды и архив. Всё, что Вы хотите узнать о погоде в Бирске!

Хотите узнать прогноз погоды в Бирске? Тогда Вам сюда: Погода в Бирске

Поиск расширенной информации на нашем сайте:

Другие новости

Новости СМИ2

Главная страница сайта

Новости сайта

03.07.2017

Напоминаем, что на нашем специализированном сайте Метеоцентр.Азия вы можете получить высокодетализированные автоматические прогнозы погоды по пунктам России, СНГ и мира в авиационном формате (включающие направление и скорость ветра, видимость, явления погоды, количество и форму облачности, нижнюю и верхнюю границу облачности).

Рекомендуем: Английский язык в Одинцово

Погода в Бирске - сегодня

Время (UTC), дата Ветер
(°,м/с) 
Видим.   Явления Облачность Т
(°С)
Тd
(°С)
f(%) Тe
(°С)
Pmin
(гПа)
dP
(гПа)
Po
(мм)
O2
(г/м3)
Тmin Tmax R s Состояние
почвы
06 16.08.18 180 (Ю) 20000 м    9/9 600 м кучево-дожд. 
[Cb cap]
+20.3 +10.5 53 +22  1015.4  -1.2  745  278           
09 16.08.18 200 (Ю) 20000 м    9/9 600 м кучево-дожд. 
[Cb cap]
+22.7 +8.8 41 +23  1013.3  -1.9  744  275           
12 16.08.18 230 (ЮЗ) 20000 м    9/9 600 м кучево-дожд. 
[Cb cap]
+24.1 +10.9 43 +27  1012.1  -1  743  273           
15 16.08.18 190 (Ю) 20000 м  в посл. час ливневой дождь  9/9 300 м кучево-дожд. 
[Cb cap]
+19.6 +14.8 74 +30  1011.5  -0.9  742  276    +24.4     
18 16.08.18 250 (З) 3{11}  4000 м  гроза, ливневой дождь  9/9 300 м кучево-дожд. 
[Cb cap]
+18 +15.8 87 +29  1012.3  0.6  743  277           
21 16.08.18 210 (ЮЗ) 10 км  {гроза, ливн. осадки}  9/9 300 м кучево-дожд. 
[Cb cap]
+16.6 +15.1 91 +26  1011.6  -0.8  742  279           
00 17.08.18 270 (З) 10 км  {гроза, ливн. осадки}  10/10 600 м кучево-дожд. 
[Cb cap]
+15.6 +13 85 +22  1012.9  1.1  743  281           
03 17.08.18 300 (СЗ) 20000 м    10/10 600 м кучево-дожд. 
[Cb cap]
+14.1 +11.2 83 +17  1014.9  1.8  745  283  +14.1      влажная 
06 17.08.18 320 (СЗ) 20000 м    9/9 600 м кучево-дожд. 
[Cb cap]
+15.5 +10.3 71 +18  1016.3  1.5  746  282  +13.9         
09 17.08.18 320 (СЗ) 20000 м    9/6 600 м кучево-дожд., верхняя 
[Cb cap|Cs]
+18.2 +8.4 53 +19  1016.7  0.6  746  280           
12 17.08.18 320 (СЗ) 20000 м    8/5 600 м кучево-дожд., средняя 
[Cb cap|Ac trans]
+18.9 +6.8 45 +19  1016.7  746  280           
15 17.08.18 330 (СЗ) 20000 м    3/0 средняя 
[Ac trans]
+16.4 +6.4 52 +17  1017.5  0.6  747  283    +19.4       
18 17.08.18 360 (С) 10 км    ясно 
+12.9 +5.6 61 +13  1018.1  0.3  747  286           
21 17.08.18 340 (С) 10 км    ясно 
+10.6 +6.2 74 +11  1018.1  -0.2  747  289           
00 18.08.18 330 (СЗ) 10 км    ясно 
+7.9 +5.7 86 +9  1019.1  0.7  747  292           
03 18.08.18 360 (С) 20000 м    ясно 
+9.8 +7 83 +10  1020.2  1.2  748  290  +7.7        сухая 
06 18.08.18 350 (С) 20000 м    5/4 600 м средняя 
[Cu med, cong|Ac trans]
+14.8 +8.7 67 +15  1019.9  0.1  748  284           
09 18.08.18 360 (С) 20000 м    4/4 600 м кучево-дожд. 
[Cb cap]
+16.7 +6.8 52 +17  1019.2  -0.6  748  283           
12 18.08.18 340 (С) 20000 м    8/8 600 м кучево-дожд. 
[Cb cap]
+15.2 +7.4 60 +15  1019.3  748  284           
15 18.08.18 360 (С) 20000 м    4/3 600 м кучево-дожд., средняя, верхняя 
[Cb cap|Ac trans|Ci fib]
+14.1 +6.6 61 +14  1019.8  0.4  748  286    +16.8       
18 18.08.18 010 (С) 10 км    3/3 600 м 
[Sc]
+10.6 +6.7 77 +10  1020.6  0.5  749  289           
21 18.08.18 350 (С) 10 км    3/3 600 м 
[Sc]
+8.5 +6 84 +9  1020.8  0.1  749  292           
00 19.08.18 360 (С) 10 км    1/0 средняя 
[Ac trans]
+7.1 +5.6 90 +7  1021.3  0.4  749  293           
03 19.08.18 010 (С) 20000 м    ясно 
+9 +6.5 84 +9  1021.7  0.5  749  291  +6.7        сухая 
06 19.08.18 010 (С) 20000 м    1/1 600 м 
[Cu hum]
+15.1 +8 63 +15  1021.2  749  285           
Время (UTC), дата Ветер
(°,м/с) 
Видим.   Явления Облачность Т
(°С)
Тd
(°С)
f(%) Тe
(°С)
Pmin
(гПа)
dP
(гПа)
Po
(мм)
O2
(г/м3)
Тmin Tmax R s Состояние
почвы

Для получения пояснительной информации подведите курсор к названию столбца.

ПОГОДА в Бирске - архив

Всё, что Вы хотите узнать о погоде в Бирске - удобно и подробно!

Выберите нужную дату (начиная с 1 января 2015* года) и нажмите кнопку "Найти".
Будут отображены архивные сводки погоды по пункту Бирск, начиная с указанной даты.


Отображать данные в формате CSV (для использования в таблицах Excel)


Внимание! Наш архив погоды предназначен исключительно для личного некоммерческого использования в познавательных целях. Если Вам необходимы официальные справки о состоянии погоды (для производственных, юридических, коммерческих и т.п. целей), обращайтесь в органы Росгидромета.

*Примечание: данная дата относится к архиву по метеостанциям СССР (Россия, СНГ, Балтия).
Архив по метеостанциям Зарубежной Европы и Азии (кроме Китая) хранится 10 дней, по другим регионам земного шара (Китай, Африка, Америка, Австралия, Океания) - 1 день.

Бирск - район местоположения метеостанции


Название, широта, долгота, высота метеостанции:
Бирск 55.4°ш. 55.5°д. 186 м над ур. моря [Российская Федерация]

Дополнительная информация

В oтличие oт бoльшинства пoгoдных сайтoв мы публикуем пoдрoбную метеoинфoрмацию в детальнoм прoфессиoнальнoм фoрмате.

Характеристики температуры и влажнoсти вoздуха измеряются на высoте 2 м в тени вдали oт зданий и деревьев.
Скoрoсть ветра измеряется на высoте 10 м (на урoвне рoста челoвека скoрoсть ветра ниже в 1.5-2 раза). Если метеoстанция нахoдится в гoрoде или в лесу, тo скoрoсть ветра занижена на 2-4 м/с пo сравнению с oткрытым местoм. Скoрoсть ветра над акватoриями крупных рек и oзёр, а также на вершинах хoлмoв на 2-5 м/с выше, чем в oбычных услoвиях.
Атмoсфернoе давление в разных тoчках местнoсти мoжет значительнo oтличаться oт давления на метеoстанции, в зависимoсти oт услoвий рельефа (при пoдъёме на 10 м давление пoнижается примернo на 1 мм рт.ст.).